Location: Kellogg
(38.0159°N, 90.0546°W)
Time: 01:53:05
(UTC+00:00)

BlueWalker 3 - Pass Details

Date: 26 January 2026
Orbit: 450 x 461 km, 53.2° (Epoch: 14 February)

Event Time Altitude Azimuth Distance (km) Brightness Sun altitude
Rises 00:26:26 0° 277° (W) 2,452 6.9 -14.1°
Reaches altitude 10° 00:29:25 10° 304° (NW) 1,581 5.1 -14.6°
Maximum altitude 00:31:20 14° 337° (NNW) 1,362 4.3 -15.0°
Drops below altitude 10° 00:33:16 10° 10° (N) 1,583 4.2 -15.4°
Enters shadow 00:33:31 - 13° (NNE) 1,639 4.3 -15.4°
